FW0074 Weather Reports


Display with metric or nautical units.
time (UTC)temp
F
wind
direction
speed
MPH
gust
MPH
rain 1hr
in
rain 24hr
in
rain mn
in
humidity
%
barometer
mb
20260505083517 32 0 8.0 11.0 0.00 0.08 0.05 94 1011.5
20260505082517 32 23 7.0 10.0 0.01 0.08 0.05 94 1011.5
20260505081517 33 23 7.0 10.0 0.01 0.08 0.05 93 1011.3
20260505080517 33 23 8.0 12.0 0.01 0.08 0.05 93 1011.2
20260505075517 33 23 7.0 11.0 0.01 0.08 0.05 93 1011.3
20260505074517 33 23 10.0 12.0 0.02 0.08 0.05 93 1011.6
20260505073517 33 23 9.0 12.0 0.02 0.08 0.05 92 1011.6
20260505072517 34 23 9.0 12.0 0.01 0.07 0.04 91 1011.6
20260505071517 34 23 10.0 16.0 0.02 0.07 0.04 91 1012.5
20260505070517 35 23 12.0 16.0 0.04 0.07 0.04 91 1012.4
20260505065517 36 23 12.0 16.0 0.05 0.07 0.04 90 1012.4
20260505064517 36 45 10.0 15.0 0.04 0.06 0.03 90 1012.5
20260505063517 36 23 10.0 14.0 0.05 0.06 0.03 90 1012.5
20260505062516 35 23 10.0 14.0 0.05 0.06 0.03 90 1012.7
20260505061517 35 23 12.0 15.0 0.05 0.05 0.02 88 1013.1
20260505060517 36 0 14.0 19.0 0.03 0.03 0.00 87 1013.6
20260505055536 38 0 15.0 20.0 0.02 0.02 0.02 82 1013.8
20260505054516 40 0 8.0 12.0 0.02 0.02 0.02 83 1014.6
20260505053517 41 23 9.0 16.0 0.01 0.01 0.01 81 1014.3
20260505052516 41 0 8.0 12.0 0.01 0.01 0.01 80 1014.4
20260505051516 42 23 9.0 13.0 0.00 0.00 0.00 76 1014.3
20260505050516 43 0 12.0 15.0 0.00 0.00 0.00 72 1014.1
20260505041536 45 45 10.0 15.0 0.00 0.00 0.00 68 1013.5
20260505040516 45 45 9.0 13.0 0.00 0.00 0.00 69 1013.5
20260505035516 45 45 9.0 13.0 0.00 0.00 0.00 70 1013.1
20260505034516 46 45 9.0 11.0 0.00 0.00 0.00 71 1013.1
20260505033516 47 45 9.0 13.0 0.00 0.00 0.00 76 1012.9
20260505032516 47 68 7.0 10.0 0.00 0.00 0.00 77 1013.1
20260505031516 47 68 7.0 10.0 0.00 0.00 0.00 76 1012.8
20260505030516 47 68 5.0 9.0 0.00 0.00 0.00 78 1012.6
20260505025516 47 68 6.0 9.0 0.00 0.00 0.00 79 1012.3
20260505024516 47 68 5.0 9.0 0.00 0.00 0.00 80 1011.3
20260505023516 47 68 5.0 10.0 0.00 0.00 0.00 80 1011.3
20260505022516 47 68 7.0 11.0 0.00 0.00 0.00 79 1011.3
20260505021516 48 68 7.0 11.0 0.00 0.00 0.00 79 1010.5
20260505020516 48 68 7.0 11.0 0.00 0.00 0.00 78 1010.8
20260505015516 48 68 4.0 6.0 0.00 0.00 0.00 78 1010.9
20260505014516 49 68 4.0 6.0 0.00 0.00 0.00 75 1010.3
20260505013536 50 68 6.0 9.0 0.00 0.00 0.00 72 1010.3
20260505012516 50 68 5.0 9.0 0.00 0.00 0.00 73 1010.2
20260505011516 50 45 5.0 9.0 0.00 0.00 0.00 75 1008.6
20260505010536 50 45 3.0 4.0 0.00 0.00 0.00 77 1008.8
20260505005516 50 338 3.0 5.0 0.00 0.00 0.00 75 1008.8
20260505004516 51 315 5.0 6.0 0.00 0.00 0.00 73 1008.2
20260505003516 50 315 5.0 8.0 0.00 0.00 0.00 73 1008.4
20260505002516 50 315 7.0 10.0 0.00 0.00 0.00 72 1008.4
20260505001516 51 315 11.0 19.0 0.00 0.00 0.00 67 1007.9
20260505000516 54 315 15.0 20.0 0.00 0.00 0.00 55 1007.9
20260504235516 57 23 9.0 15.0 0.00 0.00 0.00 44 1008.3
20260504234516 58 23 3.0 5.0 0.00 0.00 0.00 40 1008.5
20260504233516 58 23 5.0 9.0 0.00 0.00 0.00 39 1008.3
20260504232516 58 0 4.0 8.0 0.00 0.00 0.00 40 1008.2
20260504231516 58 0 5.0 9.0 0.00 0.00 0.00 40 1007.6
20260504230516 59 23 8.0 12.0 0.00 0.00 0.00 40 1007.5
20260504225516 59 23 8.0 12.0 0.00 0.00 0.00 39 1007.5
20260504224516 59 0 4.0 8.0 0.00 0.00 0.00 39 1006.8
20260504223516 59 23 6.0 10.0 0.00 0.00 0.00 39 1006.9
20260504222536 60 0 5.0 10.0 0.00 0.00 0.00 39 1007.6
20260504221516 60 23 5.0 10.0 0.00 0.00 0.00 39 1007.6
20260504220536 60 338 8.0 12.0 0.00 0.00 0.00 39 1007.8
20260504215516 60 315 9.0 13.0 0.00 0.00 0.00 38 1007.7
20260504214516 60 315 9.0 15.0 0.00 0.00 0.00 38 1007.9
20260504213516 61 23 7.0 12.0 0.00 0.00 0.00 38 1008.3
20260504212516 61 338 10.0 16.0 0.00 0.00 0.00 37 1008.4
20260504211516 61 0 10.0 15.0 0.00 0.00 0.00 38 1008.1
20260504210516 61 0 12.0 19.0 0.00 0.00 0.00 38 1008.0
20260504205516 61 23 10.0 18.0 0.00 0.00 0.00 36 1008.1
20260504204516 63 0 11.0 17.0 0.00 0.00 0.00 35 1007.9
20260504203516 62 23 8.0 16.0 0.00 0.00 0.00 37 1008.0
20260504201518 61 0 11.0 15.0 0.00 0.00 0.00 38 1008.2
20260504200518 61 0 9.0 12.0 0.00 0.00 0.00 37 1008.6
20260504195538 60 338 12.0 14.0 0.00 0.00 0.00 37 1008.1
20260504194518 60 0 11.0 17.0 0.00 0.00 0.00 38 1008.1
20260504193518 61 0 15.0 23.0 0.00 0.00 0.00 37 1008.4
20260504192518 61 0 15.0 23.0 0.00 0.00 0.00 36 1008.2
20260504191518 61 0 18.0 22.0 0.00 0.00 0.00 35 1008.3
20260504190518 62 0 18.0 25.0 0.00 0.00 0.00 34 1008.2
20260504185518 64 0 20.0 29.0 0.00 0.00 0.00 32 1008.6
20260504184517 64 23 19.0 23.0 0.00 0.00 0.00 33 1008.6
20260504183537 63 0 21.0 27.0 0.00 0.00 0.00 32 1008.3
20260504182518 64 0 22.0 29.0 0.00 0.00 0.00 33 1008.6
20260504181516 65 23 21.0 30.0 0.00 0.00 0.00 29 1008.7
20260504180517 66 0 24.0 30.0 0.00 0.00 0.00 28 1008.7
20260504175517 65 23 22.0 32.0 0.00 0.00 0.00 28 1008.4
20260504174517 66 0 20.0 28.0 0.00 0.00 0.00 26 1009.0
20260504173517 66 0 13.0 25.0 0.00 0.00 0.00 22 1008.8
20260504172520 67 338 10.0 18.0 0.00 0.00 0.00 22 1009.4
20260504171518 68 293 14.0 18.0 0.00 0.00 0.00 21 1010.3
20260504170518 67 315 14.0 21.0 0.00 0.00 0.00 22 1009.9
20260504150518 63 315 13.0 18.0 0.00 0.00 0.00 25 1011.1
20260504140517 55 315 10.0 12.0 0.00 0.00 0.00 33 1011.3
20260504130517 48 270 8.0 10.0 0.00 0.00 0.00 50 1011.3
20260504110517 40 203 5.0 7.0 0.00 0.00 0.00 63 1009.9
20260504100517 37 225 3.0 4.0 0.00 0.00 0.00 64 1009.5